This is the latest recevied weather packets stored in our database for station/object BM1CKC-10. If no packets are shown the sender has not sent any weather packets the latest 10 day(s).
| Time | Temp. | Humidity | Pressure | Rain* | Wind** | Luminosity | Snow |
|---|---|---|---|---|---|---|---|
| 1778126999 | 27.78° C | 63% | 1005.8 hPa | - | - | - | - |
| 1778125799 | 27.22° C | 63% | 1005.8 hPa | - | - | - | - |
| 1778124598 | 27.22° C | 63% | 1006.1 hPa | - | - | - | - |
| 1778123399 | 27.22° C | 63% | 1006.2 hPa | - | - | - | - |
| 1778122198 | 27.22° C | 63% | 1006.2 hPa | - | - | - | - |
| 1778120998 | 27.22° C | 63% | 1006.2 hPa | - | - | - | - |
| 1778119798 | 27.22° C | 64% | 1006.4 hPa | - | - | - | - |
| 1778118598 | 27.78° C | 63% | 1006.4 hPa | - | - | - | - |
| 1778117398 | 27.22° C | 63% | 1006.6 hPa | - | - | - | - |
| 1778116198 | 27.22° C | 64% | 1006.8 hPa | - | - | - | - |
| 1778114998 | 27.22° C | 64% | 1006.7 hPa | - | - | - | - |
| 1778113798 | 26.67° C | 63% | 1006.7 hPa | - | - | - | - |
| 1778112599 | 26.67° C | 63% | 1006.8 hPa | - | - | - | - |
| 1778111399 | 26.67° C | 62% | 1006.8 hPa | - | - | - | - |
| 1778110198 | 27.22° C | 61% | 1006.7 hPa | - | - | - | - |
| 1778108999 | 26.11° C | 64% | 1006.7 hPa | - | - | - | - |
| 1778107798 | 25.56° C | 64% | 1006.6 hPa | - | - | - | - |
| 1778106599 | 25.56° C | 63% | 1006.3 hPa | - | - | - | - |
| 1778105399 | 25.56° C | 63% | 1006.1 hPa | - | - | - | - |
| 1778104199 | 26.11° C | 62% | 1005.8 hPa | - | - | - | - |
| 1778102998 | 25.56° C | 61% | 1005.5 hPa | - | - | - | - |
| 1778101798 | 25° C | 61% | 1005.4 hPa | - | - | - | - |
| 1778100598 | 27.22° C | 61% | 1005.3 hPa | - | - | - | - |
| 1778099398 | 27.22° C | 63% | 1005.1 hPa | - | - | - | - |
| 1778098198 | 27.22° C | 63% | 1005 hPa | - | - | - | - |
* Rain since midnight (hover to see other rain measurements)
** Current wind speed in m/s (hover to see current wind gust speed)